This demonstration page uses our WeatherBlox Daily Observations layout. Learn more.

Left ArrowRight Arrow

Hourly Observations for March 31, 2020

Temp ( °F °C ) Dew Point ( °F °C ) Humidity (%) Winds ( mph kmh ) Pressure ( in mb ) Visibility ( mi km ) Precip ( " mm )
12:56 am 00:56 Cloudy 53 11.4 27 -2.8 37 37 E 7 11 30.08 1019 10 16 0.00 0.00
1:56 am 01:56 Cloudy 50 9.9 26 -3.1 40 40 Calm 30.08 1019 10 16 0.00 0.00
2:56 am 02:56 Cloudy 44 6.7 33 0.6 65 65 Calm 30.09 1019 10 16 0.00 0.00
3:56 am 03:56 Mostly Cloudy 42 5.4 32 0.2 69 69 E 5 7 30.09 1019 10 16 0.00 0.00
4:56 am 04:56 Mostly Clear 45 7.3 31 -0.7 57 57 NE 8 13 30.07 1018 10 16 0.00 0.00
5:56 am 05:56 Mostly Clear 45 7.3 30 -1.1 56 56 ENE 6 9 30.07 1018 10 16 0.00 0.00
6:56 am 06:56 Mostly Clear 44 6.8 29 -1.6 55 55 Calm 30.07 1018 10 16 0.00 0.00
7:56 am 07:56 Sunny 40 4.3 30 -0.9 69 69 Calm 30.09 1019 10 16 0.00 0.00
8:56 am 08:56 Sunny 47 8.4 32 -0.1 55 55 E 6 9 30.08 1019 10 16 0.00 0.00
9:56 am 09:56 Sunny 55 12.6 29 -1.4 38 38 ESE 8 13 30.07 1018 10 16 0.00 0.00
10:56 am 10:56 Sunny 59 14.8 30 -0.9 34 34 SSE 10 17 30.06 1018 10 16 0.00 0.00
11:56 am 11:56 Partly Cloudy 62 16.6 31 -0.6 31 31 S 5 7 30.04 1017 10 16 0.00 0.00
12:56 pm 12:56 Cloudy 63 17.1 36 2.3 37 37 S 6 9 30.03 1017 10 16 0.00 0.00
1:56 pm 13:56 Mostly Cloudy 63 17.4 39 4 41 41 Calm 30.01 1016 10 16 0.00 0.00
2:56 pm 14:56 Sunny 67 19.2 42 5.3 40 40 Calm 29.97 1015 10 16 0.00 0.00
4:56 pm 16:56 Mostly Cloudy 67 19.7 43 6.1 41 41 SSW 9 15 29.93 1014 10 16 0.00 0.00
5:56 pm 17:56 Partly Cloudy 67 19.7 44 6.4 42 42 SE 8 13 29.91 1013 10 16 0.00 0.00
6:56 pm 18:56 Sunny 66 19.1 42 5.5 41 41 S 7 11 29.90 1013 10 16 0.00 0.00
7:56 pm 19:56 Clear 59 15.1 42 5.3 52 52 SE 7 11 29.91 1013 10 16 0.00 0.00
8:56 pm 20:56 Mostly Clear 56 13.5 42 5.4 58 58 ESE 6 9 29.91 1013 10 16 0.00 0.00
9:56 pm 21:56 Cloudy 55 12.8 42 5.5 61 61 E 6 9 29.91 1013 10 16 0.00 0.00
10:56 pm 22:56 Mostly Cloudy 55 12.6 42 5.5 62 62 ESE 7 11 29.90 1013 10 16 0.00 0.00
11:45 pm 23:45 Hazy 54 12 41 5 63 63 SE 6 9 29.90 1013 1 1 0.00 0.00
11:56 pm 23:56 Mostly Cloudy 53 11.7 42 5.3 65 65 SSE 3 6 29.90 1013 7 11 0.00 0.00

Powered by AerisWeather